timestamp,waterbody_station,lease,latitude,longitude,deployment_start_date,deployment_end_date,sensor,depth,mooring,Temperature_degrees Celsius,Dissolved Oxygen_percent saturation,Dissolved Oxygen_mg/L
2017-10-07T00:00:00,Sober Island Pond-Sober Island,1323.0,44.845186,-62.4662922,2017-06-24,2017-12-12,HOBO-10817399,1.0,float,16.487,,
2017-10-07T00:15:00,Sober Island Pond-Sober Island,1323.0,44.845186,-62.4662922,2017-06-24,2017-12-12,HOBO-10817399,1.0,float,16.439,,
2017-10-07T00:30:00,Sober Island Pond-Sober Island,1323.0,44.845186,-62.4662922,2017-06-24,2017-12-12,HOBO-10817399,1.0,float,16.368,,
2017-10-07T00:45:00,Sober Island Pond-Sober Island,1323.0,44.845186,-62.4662922,2017-06-24,2017-12-12,HOBO-10817399,1.0,float,16.344,,
2017-10-07T01:00:00,Sober Island Pond-Sober Island,1323.0,44.845186,-62.4662922,2017-06-24,2017-12-12,HOBO-10817399,1.0,float,16.32,,
2017-10-07T01:15:00,Sober Island Pond-Sober Island,1323.0,44.845186,-62.4662922,2017-06-24,2017-12-12,HOBO-10817399,1.0,float,16.368,,
2017-10-07T01:30:00,Sober Island Pond-Sober Island,1323.0,44.845186,-62.4662922,2017-06-24,2017-12-12,HOBO-10817399,1.0,float,16.344,,
2017-10-07T01:45:00,Sober Island Pond-Sober Island,1323.0,44.845186,-62.4662922,2017-06-24,2017-12-12,HOBO-10817399,1.0,float,16.32,,
2017-10-07T02:00:00,Sober Island Pond-Sober Island,1323.0,44.845186,-62.4662922,2017-06-24,2017-12-12,HOBO-10817399,1.0,float,16.32,,
2017-10-07T02:15:00,Sober Island Pond-Sober Island,1323.0,44.845186,-62.4662922,2017-06-24,2017-12-12,HOBO-10817399,1.0,float,16.296,,
2017-10-07T02:30:00,Sober Island Pond-Sober Island,1323.0,44.845186,-62.4662922,2017-06-24,2017-12-12,HOBO-10817399,1.0,float,16.272,,
2017-10-07T02:45:00,Sober Island Pond-Sober Island,1323.0,44.845186,-62.4662922,2017-06-24,2017-12-12,HOBO-10817399,1.0,float,16.272,,
2017-10-07T03:00:00,Sober Island Pond-Sober Island,1323.0,44.845186,-62.4662922,2017-06-24,2017-12-12,HOBO-10817399,1.0,float,16.249,,
2017-10-07T03:15:00,Sober Island Pond-Sober Island,1323.0,44.845186,-62.4662922,2017-06-24,2017-12-12,HOBO-10817399,1.0,float,16.272,,
2017-10-07T03:30:00,Sober Island Pond-Sober Island,1323.0,44.845186,-62.4662922,2017-06-24,2017-12-12,HOBO-10817399,1.0,float,16.249,,
2017-10-07T03:45:00,Sober Island Pond-Sober Island,1323.0,44.845186,-62.4662922,2017-06-24,2017-12-12,HOBO-10817399,1.0,float,16.201,,
2017-10-07T04:00:00,Sober Island Pond-Sober Island,1323.0,44.845186,-62.4662922,2017-06-24,2017-12-12,HOBO-10817399,1.0,float,16.225,,
2017-10-07T04:15:00,Sober Island Pond-Sober Island,1323.0,44.845186,-62.4662922,2017-06-24,2017-12-12,HOBO-10817399,1.0,float,16.201,,
2017-10-07T04:30:00,Sober Island Pond-Sober Island,1323.0,44.845186,-62.4662922,2017-06-24,2017-12-12,HOBO-10817399,1.0,float,16.153,,
2017-10-07T04:45:00,Sober Island Pond-Sober Island,1323.0,44.845186,-62.4662922,2017-06-24,2017-12-12,HOBO-10817399,1.0,float,16.106,,
2017-10-07T05:00:00,Sober Island Pond-Sober Island,1323.0,44.845186,-62.4662922,2017-06-24,2017-12-12,HOBO-10817399,1.0,float,16.082,,
2017-10-07T05:15:00,Sober Island Pond-Sober Island,1323.0,44.845186,-62.4662922,2017-06-24,2017-12-12,HOBO-10817399,1.0,float,16.058,,
2017-10-07T05:30:00,Sober Island Pond-Sober Island,1323.0,44.845186,-62.4662922,2017-06-24,2017-12-12,HOBO-10817399,1.0,float,16.01,,
2017-10-07T05:45:00,Sober Island Pond-Sober Island,1323.0,44.845186,-62.4662922,2017-06-24,2017-12-12,HOBO-10817399,1.0,float,15.986,,
2017-10-07T06:00:00,Sober Island Pond-Sober Island,1323.0,44.845186,-62.4662922,2017-06-24,2017-12-12,HOBO-10817399,1.0,float,15.963,,
2017-10-07T06:15:00,Sober Island Pond-Sober Island,1323.0,44.845186,-62.4662922,2017-06-24,2017-12-12,HOBO-10817399,1.0,float,15.915,,
2017-10-07T06:30:00,Sober Island Pond-Sober Island,1323.0,44.845186,-62.4662922,2017-06-24,2017-12-12,HOBO-10817399,1.0,float,15.915,,
2017-10-07T06:45:00,Sober Island Pond-Sober Island,1323.0,44.845186,-62.4662922,2017-06-24,2017-12-12,HOBO-10817399,1.0,float,15.915,,
2017-10-07T07:00:00,Sober Island Pond-Sober Island,1323.0,44.845186,-62.4662922,2017-06-24,2017-12-12,HOBO-10817399,1.0,float,15.867,,
2017-10-07T07:15:00,Sober Island Pond-Sober Island,1323.0,44.845186,-62.4662922,2017-06-24,2017-12-12,HOBO-10817399,1.0,float,15.867,,
2017-10-07T07:30:00,Sober Island Pond-Sober Island,1323.0,44.845186,-62.4662922,2017-06-24,2017-12-12,HOBO-10817399,1.0,float,15.939,,
2017-10-07T07:45:00,Sober Island Pond-Sober Island,1323.0,44.845186,-62.4662922,2017-06-24,2017-12-12,HOBO-10817399,1.0,float,15.963,,
2017-10-07T08:00:00,Sober Island Pond-Sober Island,1323.0,44.845186,-62.4662922,2017-06-24,2017-12-12,HOBO-10817399,1.0,float,15.915,,
2017-10-07T08:15:00,Sober Island Pond-Sober Island,1323.0,44.845186,-62.4662922,2017-06-24,2017-12-12,HOBO-10817399,1.0,float,15.939,,
2017-10-07T08:30:00,Sober Island Pond-Sober Island,1323.0,44.845186,-62.4662922,2017-06-24,2017-12-12,HOBO-10817399,1.0,float,15.939,,
2017-10-07T08:45:00,Sober Island Pond-Sober Island,1323.0,44.845186,-62.4662922,2017-06-24,2017-12-12,HOBO-10817399,1.0,float,15.939,,
2017-10-07T09:00:00,Sober Island Pond-Sober Island,1323.0,44.845186,-62.4662922,2017-06-24,2017-12-12,HOBO-10817399,1.0,float,15.915,,
2017-10-07T09:15:00,Sober Island Pond-Sober Island,1323.0,44.845186,-62.4662922,2017-06-24,2017-12-12,HOBO-10817399,1.0,float,15.915,,
2017-10-07T09:30:00,Sober Island Pond-Sober Island,1323.0,44.845186,-62.4662922,2017-06-24,2017-12-12,HOBO-10817399,1.0,float,15.867,,
2017-10-07T09:45:00,Sober Island Pond-Sober Island,1323.0,44.845186,-62.4662922,2017-06-24,2017-12-12,HOBO-10817399,1.0,float,15.867,,
2017-10-07T10:00:00,Sober Island Pond-Sober Island,1323.0,44.845186,-62.4662922,2017-06-24,2017-12-12,HOBO-10817399,1.0,float,15.939,,
2017-10-07T10:15:00,Sober Island Pond-Sober Island,1323.0,44.845186,-62.4662922,2017-06-24,2017-12-12,HOBO-10817399,1.0,float,15.915,,
2017-10-07T10:30:00,Sober Island Pond-Sober Island,1323.0,44.845186,-62.4662922,2017-06-24,2017-12-12,HOBO-10817399,1.0,float,16.01,,
2017-10-07T10:45:00,Sober Island Pond-Sober Island,1323.0,44.845186,-62.4662922,2017-06-24,2017-12-12,HOBO-10817399,1.0,float,16.01,,
2017-10-07T11:00:00,Sober Island Pond-Sober Island,1323.0,44.845186,-62.4662922,2017-06-24,2017-12-12,HOBO-10817399,1.0,float,16.01,,
2017-10-07T11:15:00,Sober Island Pond-Sober Island,1323.0,44.845186,-62.4662922,2017-06-24,2017-12-12,HOBO-10817399,1.0,float,16.01,,
2017-10-07T11:30:00,Sober Island Pond-Sober Island,1323.0,44.845186,-62.4662922,2017-06-24,2017-12-12,HOBO-10817399,1.0,float,16.058,,
2017-10-07T11:45:00,Sober Island Pond-Sober Island,1323.0,44.845186,-62.4662922,2017-06-24,2017-12-12,HOBO-10817399,1.0,float,16.058,,
2017-10-07T12:00:00,Sober Island Pond-Sober Island,1323.0,44.845186,-62.4662922,2017-06-24,2017-12-12,HOBO-10817399,1.0,float,16.034,,
2017-10-07T12:15:00,Sober Island Pond-Sober Island,1323.0,44.845186,-62.4662922,2017-06-24,2017-12-12,HOBO-10817399,1.0,float,16.01,,
2017-10-07T12:30:00,Sober Island Pond-Sober Island,1323.0,44.845186,-62.4662922,2017-06-24,2017-12-12,HOBO-10817399,1.0,float,15.939,,
2017-10-07T12:45:00,Sober Island Pond-Sober Island,1323.0,44.845186,-62.4662922,2017-06-24,2017-12-12,HOBO-10817399,1.0,float,15.676,,
2017-10-07T13:00:00,Sober Island Pond-Sober Island,1323.0,44.845186,-62.4662922,2017-06-24,2017-12-12,HOBO-10817399,1.0,float,15.724,,
2017-10-07T13:15:00,Sober Island Pond-Sober Island,1323.0,44.845186,-62.4662922,2017-06-24,2017-12-12,HOBO-10817399,1.0,float,15.772,,
2017-10-07T13:30:00,Sober Island Pond-Sober Island,1323.0,44.845186,-62.4662922,2017-06-24,2017-12-12,HOBO-10817399,1.0,float,15.867,,
2017-10-07T13:45:00,Sober Island Pond-Sober Island,1323.0,44.845186,-62.4662922,2017-06-24,2017-12-12,HOBO-10817399,1.0,float,16.01,,
2017-10-07T14:00:00,Sober Island Pond-Sober Island,1323.0,44.845186,-62.4662922,2017-06-24,2017-12-12,HOBO-10817399,1.0,float,16.058,,
2017-10-07T14:15:00,Sober Island Pond-Sober Island,1323.0,44.845186,-62.4662922,2017-06-24,2017-12-12,HOBO-10817399,1.0,float,16.201,,
2017-10-07T14:30:00,Sober Island Pond-Sober Island,1323.0,44.845186,-62.4662922,2017-06-24,2017-12-12,HOBO-10817399,1.0,float,16.225,,
2017-10-07T14:45:00,Sober Island Pond-Sober Island,1323.0,44.845186,-62.4662922,2017-06-24,2017-12-12,HOBO-10817399,1.0,float,16.368,,
2017-10-07T15:00:00,Sober Island Pond-Sober Island,1323.0,44.845186,-62.4662922,2017-06-24,2017-12-12,HOBO-10817399,1.0,float,16.463,,
2017-10-07T15:15:00,Sober Island Pond-Sober Island,1323.0,44.845186,-62.4662922,2017-06-24,2017-12-12,HOBO-10817399,1.0,float,16.534,,
2017-10-07T15:30:00,Sober Island Pond-Sober Island,1323.0,44.845186,-62.4662922,2017-06-24,2017-12-12,HOBO-10817399,1.0,float,16.582,,
2017-10-07T15:45:00,Sober Island Pond-Sober Island,1323.0,44.845186,-62.4662922,2017-06-24,2017-12-12,HOBO-10817399,1.0,float,16.606,,
2017-10-07T16:00:00,Sober Island Pond-Sober Island,1323.0,44.845186,-62.4662922,2017-06-24,2017-12-12,HOBO-10817399,1.0,float,16.725,,
2017-10-07T16:15:00,Sober Island Pond-Sober Island,1323.0,44.845186,-62.4662922,2017-06-24,2017-12-12,HOBO-10817399,1.0,float,16.82,,
2017-10-07T16:30:00,Sober Island Pond-Sober Island,1323.0,44.845186,-62.4662922,2017-06-24,2017-12-12,HOBO-10817399,1.0,float,16.82,,
2017-10-07T16:45:00,Sober Island Pond-Sober Island,1323.0,44.845186,-62.4662922,2017-06-24,2017-12-12,HOBO-10817399,1.0,float,16.796,,
2017-10-07T17:00:00,Sober Island Pond-Sober Island,1323.0,44.845186,-62.4662922,2017-06-24,2017-12-12,HOBO-10817399,1.0,float,16.654,,
2017-10-07T17:15:00,Sober Island Pond-Sober Island,1323.0,44.845186,-62.4662922,2017-06-24,2017-12-12,HOBO-10817399,1.0,float,16.654,,
2017-10-07T17:30:00,Sober Island Pond-Sober Island,1323.0,44.845186,-62.4662922,2017-06-24,2017-12-12,HOBO-10817399,1.0,float,16.677,,
2017-10-07T17:45:00,Sober Island Pond-Sober Island,1323.0,44.845186,-62.4662922,2017-06-24,2017-12-12,HOBO-10817399,1.0,float,16.677,,
2017-10-07T18:00:00,Sober Island Pond-Sober Island,1323.0,44.845186,-62.4662922,2017-06-24,2017-12-12,HOBO-10817399,1.0,float,16.654,,
2017-10-07T18:15:00,Sober Island Pond-Sober Island,1323.0,44.845186,-62.4662922,2017-06-24,2017-12-12,HOBO-10817399,1.0,float,16.677,,
2017-10-07T18:30:00,Sober Island Pond-Sober Island,1323.0,44.845186,-62.4662922,2017-06-24,2017-12-12,HOBO-10817399,1.0,float,16.773,,
2017-10-07T18:45:00,Sober Island Pond-Sober Island,1323.0,44.845186,-62.4662922,2017-06-24,2017-12-12,HOBO-10817399,1.0,float,16.987,,
2017-10-07T19:00:00,Sober Island Pond-Sober Island,1323.0,44.845186,-62.4662922,2017-06-24,2017-12-12,HOBO-10817399,1.0,float,17.082,,
2017-10-07T19:15:00,Sober Island Pond-Sober Island,1323.0,44.845186,-62.4662922,2017-06-24,2017-12-12,HOBO-10817399,1.0,float,16.987,,
2017-10-07T19:30:00,Sober Island Pond-Sober Island,1323.0,44.845186,-62.4662922,2017-06-24,2017-12-12,HOBO-10817399,1.0,float,16.796,,
2017-10-07T19:45:00,Sober Island Pond-Sober Island,1323.0,44.845186,-62.4662922,2017-06-24,2017-12-12,HOBO-10817399,1.0,float,16.725,,
2017-10-07T20:00:00,Sober Island Pond-Sober Island,1323.0,44.845186,-62.4662922,2017-06-24,2017-12-12,HOBO-10817399,1.0,float,16.749,,
2017-10-07T20:15:00,Sober Island Pond-Sober Island,1323.0,44.845186,-62.4662922,2017-06-24,2017-12-12,HOBO-10817399,1.0,float,16.749,,
2017-10-07T20:30:00,Sober Island Pond-Sober Island,1323.0,44.845186,-62.4662922,2017-06-24,2017-12-12,HOBO-10817399,1.0,float,16.796,,
2017-10-07T20:45:00,Sober Island Pond-Sober Island,1323.0,44.845186,-62.4662922,2017-06-24,2017-12-12,HOBO-10817399,1.0,float,16.773,,
2017-10-07T21:00:00,Sober Island Pond-Sober Island,1323.0,44.845186,-62.4662922,2017-06-24,2017-12-12,HOBO-10817399,1.0,float,16.725,,
2017-10-07T21:15:00,Sober Island Pond-Sober Island,1323.0,44.845186,-62.4662922,2017-06-24,2017-12-12,HOBO-10817399,1.0,float,16.654,,
2017-10-07T21:30:00,Sober Island Pond-Sober Island,1323.0,44.845186,-62.4662922,2017-06-24,2017-12-12,HOBO-10817399,1.0,float,16.63,,
2017-10-07T21:45:00,Sober Island Pond-Sober Island,1323.0,44.845186,-62.4662922,2017-06-24,2017-12-12,HOBO-10817399,1.0,float,16.582,,
2017-10-07T22:00:00,Sober Island Pond-Sober Island,1323.0,44.845186,-62.4662922,2017-06-24,2017-12-12,HOBO-10817399,1.0,float,16.534,,
2017-10-07T22:15:00,Sober Island Pond-Sober Island,1323.0,44.845186,-62.4662922,2017-06-24,2017-12-12,HOBO-10817399,1.0,float,16.582,,
2017-10-07T22:30:00,Sober Island Pond-Sober Island,1323.0,44.845186,-62.4662922,2017-06-24,2017-12-12,HOBO-10817399,1.0,float,16.654,,
2017-10-07T22:45:00,Sober Island Pond-Sober Island,1323.0,44.845186,-62.4662922,2017-06-24,2017-12-12,HOBO-10817399,1.0,float,16.606,,
2017-10-07T23:00:00,Sober Island Pond-Sober Island,1323.0,44.845186,-62.4662922,2017-06-24,2017-12-12,HOBO-10817399,1.0,float,16.582,,
2017-10-07T23:15:00,Sober Island Pond-Sober Island,1323.0,44.845186,-62.4662922,2017-06-24,2017-12-12,HOBO-10817399,1.0,float,16.558,,
2017-10-07T23:30:00,Sober Island Pond-Sober Island,1323.0,44.845186,-62.4662922,2017-06-24,2017-12-12,HOBO-10817399,1.0,float,16.534,,
2017-10-07T23:45:00,Sober Island Pond-Sober Island,1323.0,44.845186,-62.4662922,2017-06-24,2017-12-12,HOBO-10817399,1.0,float,16.534,,
